Location: Alsip
(41.6689°N, 87.7387°W)
Time: 13:49:54
(UTC+00:00)

Cosmos 2233 Rocket - Pass Details

Date: 14 July 2020
Orbit: 954 x 990 km, 82.9° (Epoch: 12 August)

Event Time Altitude Azimuth Distance (km) Brightness Sun altitude
Exits shadow 07:53:28 28° 166° (SSE) 1,717 4.9 -21.2°
Maximum altitude 07:56:47 65° 93° (E) 1,065 4.2 -20.9°
Drops below altitude 10° 08:02:57 10° 13° (NNE) 2,736 7.4 -20.3°
Sets 08:05:30 0° 11° (N) 3,692 8.3 -20.1°
